Wind_Speed
59 64 69 75 78 80 82 84 86 87 85 79 74 71 70 70 70 67 64 61 58 56 54 53 52 52 53 54 55 59 65 68 68 68 70 75 83 90 95 96 95 93 91
62 67 73 77 79 81 82 84 86 85 80 75 73 71 71 70 67 62 58 56 53 51 50 48 48 47 48 50 52 54 58 65 69 69 68 70 74 83 90 96 98 96 94
65 70 75 77 79 81 83 85 85 81 76 73 72 71 69 66 60 54 51 50 49 48 47 46 45 44 44 44 46 49 52 56 64 70 70 69 70 73 81 90 97 98 97
67 72 75 77 79 81 83 84 82 77 73 73 72 71 67 60 54 50 48 50 51 50 49 47 46 44 43 42 42 44 48 51 56 64 70 71 70 69 73 81 90 97 99
69 72 75 77 79 82 84 83 78 74 72 73 72 69 63 56 51 49 50 52 53 54 53 51 49 48 46 44 43 41 43 46 50 56 65 72 72 71 70 73 83 92 97
69 72 75 77 80 82 82 80 75 72 72 72 70 66 59 53 50 51 52 53 54 55 56 55 53 51 48 46 45 43 42 42 46 50 58 67 73 74 71 69 74 85 94
69 72 75 77 80 82 81 77 73 71 72 71 68 64 57 53 52 54 56 57 57 57 57 56 55 53 50 48 46 45 43 42 43 46 52 60 69 74 73 70 68 75 87
70 73 75 78 80 81 79 74 71 71 72 70 66 62 56 54 56 59 61 62 62 61 60 58 56 54 52 49 47 45 43 41 41 43 48 54 63 71 74 72 68 68 76
71 74 76 78 80 80 77 72 70 70 71 69 65 61 57 56 59 63 65 66 66 65 64 61 58 55 52 49 46 44 42 40 39 41 45 49 56 65 72 73 71 66 67
72 74 76 78 79 78 74 70 70 71 70 68 65 61 58 59 63 66 68 69 70 70 68 64 58 53 50 47 44 42 39 37 37 38 41 46 51 59 67 72 72 67 64
72 74 76 78 78 76 72 69 69 70 69 67 64 61 59 62 65 68 71 72 74 73 67 59 50 43 39 39 38 39 36 33 33 35 37 42 47 53 61 68 71 68 62
72 73 75 77 76 74 71 69 69 69 68 66 64 61 61 64 67 70 73 75 76 70 60 48 36 27 20 20 24 29 29 28 29 31 34 38 43 48 55 63 68 68 64
71 73 74 75 75 73 70 68 68 68 67 65 64 62 62 65 68 72 75 77 74 63 49 36 24 18 10 4 9 15 19 22 24 27 30 34 39 44 49 57 63 65 64
71 71 73 74 74 72 69 68 68 67 66 65 64 62 63 66 70 73 76 77 71 57 40 27 22 20 14 7 2 5 10 15 19 23 27 30 35 39 44 51 57 61 61
70 70 71 73 73 71 68 67 67 66 65 65 64 63 64 67 70 74 77 76 69 53 34 21 17 17 16 11 7 2 4 10 15 19 24 27 31 35 39 45 51 55 56
68 69 71 73 72 70 67 66 66 66 65 64 64 64 65 67 70 74 77 76 68 52 33 18 11 11 12 8 5 2 2 6 11 17 22 25 29 32 35 40 45 49 50
68 68 70 72 71 69 66 65 65 64 64 63 64 64 65 67 70 73 76 75 69 55 37 20 9 4 4 3 4 3 1 5 10 16 21 25 28 31 33 36 39 42 43
67 67 69 71 70 68 66 64 64 63 62 62 63 64 64 66 69 72 74 74 71 61 44 28 16 7 4 5 6 6 3 4 10 16 21 25 28 30 32 33 35 36 37
67 67 68 69 69 67 65 63 62 62 61 61 62 63 64 64 67 70 72 73 72 66 53 36 24 16 11 9 8 7 4 4 10 17 22 26 29 30 31 32 32 32 33
66 66 67 68 68 66 63 61 61 60 60 60 61 62 62 63 65 68 71 72 72 69 61 47 32 23 17 12 9 7 4 4 9 16 22 27 29 30 31 30 29 29 29
66 65 66 67 67 65 62 60 60 59 59 59 60 60 60 62 64 66 69 71 71 70 66 58 45 32 23 17 12 8 5 3 8 15 22 26 29 30 30 29 28 27 26
66 65 65 66 66 64 62 59 58 58 58 58 58 58 59 60 61 63 65 67 69 68 67 64 56 44 31 23 17 11 6 2 6 13 20 25 28 29 29 28 27 26 25
65 64 64 64 64 63 61 58 57 56 56 56 56 56 57 58 59 61 62 64 65 66 66 65 62 55 44 31 22 16 9 4 3 10 17 24 27 28 28 28 27 26 25
65 63 62 63 63 62 60 57 55 54 54 53 53 53 54 56 57 59 60 61 62 64 65 65 63 61 55 44 31 22 15 8 3 5 13 21 27 28 28 28 27 27 26
64 62 61 61 61 61 59 56 53 53 52 52 51 51 51 53 56 58 59 59 60 61 62 63 63 62 60 56 46 32 21 14 7 1 8 17 24 28 29 28 28 27 27
63 61 60 60 60 59 58 55 52 51 50 50 49 49 49 50 53 55 57 58 58 58 59 61 62 62 60 59 56 47 34 22 13 6 3 11 20 26 29 29 29 28 28
Wind_Direction
333 333 332 333 332 330 328 326 324 322 321 321 321 320 319 317 316 315 313 311 308 305 301 296 290 283 278 272 267 258 249 244 241 238 235 232 230 228 226 225 224 224 224
334 334 335 334 332 330 328 326 325 324 324 324 323 323 321 320 320 319 317 316 314 311 307 302 296 289 281 274 269 264 255 247 242 238 234 231 231 228 226 225 223 222 222
335 336 336 335 332 330 328 327 326 326 326 325 325 325 324 323 323 322 321 320 318 316 312 307 301 295 287 279 272 265 260 251 244 239 234 230 229 229 227 225 223 221 220
337 337 336 334 332 331 330 329 328 328 327 327 328 327 327 326 326 325 324 323 320 318 314 310 305 299 292 285 278 270 262 255 247 241 235 231 228 227 228 226 223 221 219
338 338 336 335 333 332 331 330 329 329 329 330 330 330 329 329 329 328 326 323 320 317 313 309 304 300 294 287 281 275 267 257 250 242 237 232 228 226 226 227 225 222 220
339 338 337 336 334 334 332 331 330 331 331 332 332 332 331 330 329 327 326 323 319 316 312 308 303 298 294 287 281 275 270 261 252 244 237 232 228 225 224 224 226 223 220
340 340 338 337 336 335 334 332 332 332 333 334 334 333 332 331 329 328 326 323 319 316 311 307 302 297 292 287 281 275 269 263 254 245 238 232 227 224 222 221 224 225 222
342 341 339 338 337 336 335 334 334 334 335 336 336 335 333 331 330 329 327 325 321 317 312 307 301 295 290 285 280 274 268 262 255 247 238 232 227 223 221 219 220 223 224
343 342 341 340 339 337 336 335 335 336 337 338 337 336 334 333 332 332 330 327 324 320 314 308 300 293 287 282 277 271 266 260 254 247 239 231 226 222 219 218 217 219 223
344 343 342 341 340 339 337 337 337 338 339 339 339 338 337 336 336 335 334 331 327 322 316 310 302 292 283 277 272 267 263 257 251 246 238 230 225 221 218 216 216 216 219
344 343 343 342 341 340 339 339 339 340 341 341 341 340 339 339 340 339 337 335 331 327 322 317 309 298 284 273 266 262 258 253 248 242 236 229 223 219 216 215 214 214 215
345 344 344 343 342 341 340 340 341 342 343 343 343 343 343 343 343 343 342 340 337 334 332 329 326 317 298 274 261 256 251 246 242 237 232 227 221 217 215 213 212 213 214
346 345 344 343 343 343 342 342 343 344 345 345 346 346 346 346 347 347 347 346 344 343 344 350 1 9 5 313 255 248 242 237 234 230 227 223 218 215 213 211 211 211 213
347 346 345 344 345 345 344 344 345 346 347 348 349 349 349 349 351 352 352 352 352 353 359 16 39 47 47 36 352 256 236 229 225 222 220 217 214 211 209 209 209 210 212
347 346 345 346 346 346 346 345 346 348 349 350 351 352 352 353 355 357 357 358 359 360 7 30 62 74 63 54 50 49 224 221 216 213 212 210 207 205 205 205 206 208 212
347 346 346 347 348 348 347 347 348 350 352 353 354 355 356 357 359 1 2 3 4 5 8 23 62 93 87 67 43 31 216 210 204 204 203 202 198 197 198 200 203 206 210
348 347 347 348 349 349 349 349 350 352 354 356 357 358 359 360 2 4 6 7 8 9 9 13 29 80 93 37 360 352 271 203 196 197 196 194 191 191 193 194 197 202 207
349 348 348 349 350 350 350 350 352 354 356 357 359 1 1 2 5 7 9 11 13 14 14 14 13 6 347 342 340 338 302 211 194 192 191 189 187 187 189 191 194 199 204
349 349 349 350 352 352 352 351 353 355 357 358 1 3 3 5 7 9 11 14 16 17 18 18 17 12 3 354 348 333 303 224 198 192 189 186 185 186 187 189 191 195 201
350 349 350 351 353 353 353 352 354 356 358 360 3 5 5 7 9 11 13 16 18 20 22 22 20 18 15 12 4 349 324 243 205 195 190 187 186 187 188 189 190 194 199
351 350 350 352 353 354 354 353 354 357 359 1 5 7 7 9 11 13 15 17 19 22 23 24 24 22 19 17 13 4 342 257 209 199 193 190 189 189 190 190 191 193 197
351 351 351 352 354 355 355 354 355 357 360 3 6 8 10 11 13 15 16 18 20 23 25 26 27 26 23 20 17 12 0 304 218 203 197 195 194 193 192 192 192 192 194
351 352 352 353 354 356 356 355 356 358 1 4 6 9 11 13 15 16 17 19 20 23 25 27 28 29 28 25 21 18 13 357 243 210 202 199 198 197 195 195 194 193 192
351 352 352 353 355 356 357 356 357 359 2 4 7 9 12 14 16 16 17 19 20 22 25 27 29 30 31 30 27 22 19 14 346 222 209 204 202 201 199 198 196 195 192
351 352 352 353 355 357 357 357 357 359 2 5 7 10 12 13 15 17 18 18 19 21 24 27 29 30 31 32 31 28 23 18 12 288 215 209 206 205 204 201 199 196 194
352 352 352 353 355 357 358 358 357 359 2 5 8 10 12 14 15 16 17 18 19 21 22 25 27 29 30 32 32 31 30 26 21 14 231 212 210 208 207 205 202 199 196
Height
5791 5781 5768 5754 5738 5723 5708 5692 5675 5658 5640 5624 5609 5596 5581 5567 5552 5538 5525 5515 5505 5497 5489 5483 5478 5474 5471 5469 5468 5469 5474 5480 5486 5495 5504 5514 5524 5535 5551 5566 5581 5596 5611
5782 5770 5756 5741 5726 5710 5694 5677 5659 5641 5624 5609 5594 5580 5565 5551 5536 5523 5511 5501 5492 5484 5476 5469 5463 5458 5455 5453 5451 5451 5453 5458 5464 5473 5484 5494 5503 5512 5526 5539 5555 5572 5588
5772 5759 5745 5730 5714 5697 5680 5662 5643 5626 5610 5595 5581 5567 5552 5537 5525 5513 5502 5491 5482 5473 5465 5458 5451 5445 5441 5438 5435 5434 5435 5439 5443 5450 5461 5472 5483 5493 5504 5515 5531 5547 5563
5762 5748 5734 5718 5701 5684 5665 5646 5628 5612 5597 5583 5568 5553 5539 5527 5515 5503 5493 5482 5472 5462 5454 5446 5439 5433 5428 5424 5421 5419 5418 5421 5425 5430 5439 5451 5462 5472 5484 5495 5508 5523 5540
5753 5739 5724 5707 5689 5671 5652 5633 5616 5601 5586 5570 5555 5540 5526 5514 5503 5493 5483 5472 5461 5450 5441 5433 5426 5419 5414 5410 5406 5404 5403 5404 5407 5412 5419 5430 5442 5453 5464 5475 5487 5502 5518
5745 5730 5713 5696 5678 5659 5640 5623 5606 5591 5575 5559 5544 5529 5516 5505 5494 5484 5474 5463 5451 5439 5428 5418 5410 5403 5398 5394 5391 5389 5387 5388 5390 5394 5400 5409 5422 5434 5447 5459 5467 5482 5498
5736 5720 5704 5686 5668 5650 5631 5614 5597 5581 5565 5549 5533 5519 5506 5495 5484 5473 5462 5450 5438 5426 5414 5403 5393 5385 5380 5376 5373 5372 5371 5372 5374 5377 5382 5390 5401 5414 5428 5442 5452 5462 5477
5727 5711 5695 5677 5659 5640 5622 5605 5589 5573 5557 5540 5525 5510 5497 5485 5473 5461 5448 5434 5421 5408 5395 5384 5374 5366 5360 5356 5354 5353 5354 5356 5358 5361 5366 5374 5383 5395 5409 5424 5437 5446 5458
5719 5703 5686 5668 5650 5632 5613 5596 5581 5565 5548 5532 5516 5502 5489 5476 5463 5449 5434 5418 5402 5387 5373 5361 5351 5343 5337 5334 5334 5334 5336 5339 5342 5345 5350 5358 5367 5378 5392 5407 5421 5433 5443
5711 5695 5677 5660 5641 5623 5605 5588 5573 5557 5540 5524 5508 5494 5481 5468 5453 5438 5421 5403 5385 5366 5349 5335 5324 5316 5312 5311 5313 5315 5320 5324 5327 5331 5336 5343 5352 5363 5376 5391 5406 5420 5431
5704 5687 5670 5652 5634 5615 5598 5582 5567 5551 5535 5518 5503 5488 5474 5459 5444 5427 5408 5389 5367 5345 5325 5309 5297 5291 5288 5290 5293 5298 5304 5310 5314 5319 5324 5330 5339 5349 5362 5376 5391 5406 5419
5697 5680 5663 5645 5627 5610 5593 5577 5562 5546 5530 5513 5497 5482 5467 5452 5436 5418 5397 5375 5351 5327 5307 5291 5280 5274 5273 5276 5280 5285 5292 5298 5303 5308 5313 5320 5328 5338 5350 5363 5379 5394 5409
5690 5673 5656 5640 5622 5605 5588 5572 5557 5542 5525 5509 5492 5477 5462 5446 5429 5410 5388 5364 5339 5316 5297 5284 5276 5272 5270 5271 5274 5278 5283 5290 5295 5300 5305 5311 5320 5330 5341 5353 5368 5383 5398
5684 5668 5652 5635 5617 5600 5584 5568 5553 5537 5521 5505 5488 5473 5457 5441 5423 5403 5380 5356 5332 5310 5295 5285 5279 5276 5274 5273 5275 5277 5280 5285 5289 5294 5299 5305 5313 5323 5333 5345 5358 5373 5387
5679 5663 5648 5631 5613 5596 5580 5564 5550 5534 5518 5502 5485 5470 5453 5437 5419 5399 5377 5352 5329 5309 5296 5288 5284 5281 5279 5277 5277 5278 5279 5282 5286 5290 5295 5301 5309 5318 5328 5339 5351 5364 5377
5675 5660 5644 5627 5610 5593 5577 5562 5547 5531 5515 5499 5483 5467 5451 5435 5417 5398 5376 5352 5331 5312 5300 5292 5288 5285 5282 5280 5280 5280 5280 5282 5285 5289 5294 5299 5306 5315 5324 5334 5345 5357 5368
5671 5656 5640 5623 5606 5590 5575 5560 5545 5529 5514 5498 5483 5467 5450 5434 5417 5398 5377 5356 5335 5317 5304 5296 5291 5288 5285 5284 5283 5283 5283 5283 5285 5289 5293 5298 5305 5313 5322 5331 5341 5351 5361
5667 5652 5636 5619 5603 5587 5572 5557 5542 5528 5513 5498 5483 5467 5451 5436 5419 5401 5382 5362 5341 5323 5309 5300 5295 5292 5289 5287 5286 5285 5285 5285 5286 5289 5293 5299 5305 5312 5320 5329 5338 5347 5356
5664 5648 5633 5617 5601 5585 5570 5556 5542 5528 5514 5500 5485 5469 5454 5438 5422 5406 5388 5369 5350 5332 5316 5306 5299 5295 5293 5290 5288 5287 5286 5286 5287 5290 5294 5299 5305 5312 5320 5328 5337 5345 5352
5660 5645 5630 5615 5599 5583 5569 5555 5542 5528 5515 5501 5486 5470 5456 5441 5426 5410 5393 5376 5358 5341 5325 5313 5304 5299 5295 5292 5290 5288 5287 5288 5289 5291 5295 5300 5306 5312 5320 5327 5335 5343 5349
5658 5643 5628 5613 5597 5582 5568 5555 5542 5528 5515 5501 5487 5473 5460 5445 5430 5415 5400 5383 5367 5350 5335 5322 5311 5304 5299 5295 5292 5290 5289 5289 5290 5293 5297 5302 5307 5313 5320 5327 5334 5341 5348
5655 5640 5626 5611 5596 5581 5567 5555 5542 5529 5515 5502 5489 5477 5464 5450 5436 5422 5408 5394 5379 5363 5348 5334 5321 5311 5303 5298 5295 5292 5291 5291 5292 5294 5298 5302 5308 5314 5320 5327 5333 5340 5346
5652 5638 5624 5610 5596 5581 5568 5555 5543 5530 5517 5504 5492 5480 5468 5456 5443 5430 5417 5404 5390 5375 5360 5346 5333 5321 5311 5304 5299 5295 5293 5293 5293 5295 5298 5303 5308 5314 5321 5327 5333 5339 5345
5649 5636 5622 5609 5595 5581 5568 5555 5543 5531 5519 5507 5496 5484 5473 5461 5449 5437 5424 5412 5400 5386 5372 5358 5345 5333 5322 5312 5305 5300 5297 5296 5295 5297 5299 5303 5308 5314 5320 5327 5333 5339 5344
5647 5634 5621 5607 5594 5581 5568 5556 5544 5533 5521 5510 5499 5488 5477 5465 5454 5443 5431 5418 5406 5394 5382 5369 5356 5344 5333 5322 5313 5306 5302 5299 5298 5298 5300 5303 5308 5314 5320 5326 5332 5337 5343
5645 5632 5619 5607 5594 5581 5568 5556 5545 5535 5524 5513 5502 5492 5482 5470 5459 5447 5435 5424 5413 5402 5390 5378 5366 5355 5343 5333 5324 5315 5307 5303 5301 5301 5301 5303 5307 5312 5318 5324 5330 5336 5342